Weather History for Antigo, WI

Change the Weather History Date:

Thursday, November 14, 2013

  Actual Average Record
Temperature  
Mean Temperature 32 °F -  
Max Temperature 36 °F 36 °F 65 °F (1953)
Min Temperature 28 °F 20 °F -3 °F (1986)
Degree Days  
Heating Degree Days 33    
Moisture  
Dew Point 25 °F    
Average Humidity 76    
Maximum Humidity 94    
Minimum Humidity 64    
Precipitation  
Precipitation 0.00 in - - ()
Sea Level Pressure  
Sea Level Pressure 29.81 in    
Wind  
Wind Speed 7 mph (SW)    
Max Wind Speed 12 mph    
Max Gust Speed -    
Visibility 10 miles    
Events      
Averages and records for this station are not official NWS values.
T = Trace of Precipitation, MM = Missing Value Source: NWS Daily Summary

Daily Weather History Graph

Daily Weather History Graph

Search for Another Location

Airport:

Trip Planner

Search our weather history database for the weather conditions in past years. The results will help you decide how hot, cold, wet, or windy it might be!

Date:

Astronomy

Nov. 14, 2013 Rise Set
Actual Time 6:53 AM CST 4:27 PM CST
Civil Twilight 6:21 AM CST 4:59 PM CST
Nautical Twilight 5:46 AM CST 5:35 PM CST
Astronomical Twilight 5:11 AM CST 6:09 PM CST
Moon 2:55 PM CST (11/14) 3:41 AM CST (11/14)
Length of Visible Light 10h 37m
Length of Day
9h 34m
Waxing Gibbous, 92% of the Moon is Illuminated
Nov 14
Waxing Gibbous
Nov 17
Full
Nov 25
Last Quarter
Dec 2
New
Dec 9
First Quarter

Hourly Weather History & Observations

Time (CST) Temp. Windchill Dew Point Humidity Pressure Visibility Wind Dir Wind Speed Gust Speed Precip Events Conditions
12:15 AM 32.4 °F 24.0 °F 21.6 °F 64% 29.87 in 10.0 mi WSW 10.4 mph - N/A   Clear
12:35 AM 32.4 °F 25.3 °F 21.6 °F 64% 29.86 in 10.0 mi WSW 8.1 mph - N/A   Clear
12:55 AM 32.0 °F 24.8 °F 21.6 °F 65% 29.86 in 10.0 mi WSW 8.1 mph - N/A   Clear
1:15 AM 31.6 °F 24.4 °F 21.6 °F 66% 29.85 in 10.0 mi SW 8.1 mph - N/A   Clear
1:35 AM 30.9 °F 23.5 °F 21.6 °F 68% 29.85 in 10.0 mi SW 8.1 mph - N/A   Clear
1:55 AM 30.2 °F 22.6 °F 21.4 °F 70% 29.84 in 10.0 mi SW 8.1 mph - N/A   Clear
2:15 AM 29.7 °F 22.8 °F 21.6 °F 72% 29.85 in 10.0 mi SW 6.9 mph - N/A   Clear
2:35 AM 30.0 °F 23.2 °F 21.7 °F 71% 29.84 in 10.0 mi SW 6.9 mph - N/A   Clear
2:55 AM 30.0 °F 22.4 °F 21.9 °F 72% 29.84 in 10.0 mi SW 8.1 mph - N/A   Clear
3:15 AM 29.5 °F 22.5 °F 21.7 °F 73% 29.83 in 10.0 mi SW 6.9 mph - N/A   Clear
3:35 AM 28.9 °F 22.8 °F 21.7 °F 74% 29.83 in 10.0 mi SW 5.8 mph - N/A   Clear
3:55 AM 28.4 °F 22.2 °F 21.7 °F 76% 29.83 in 10.0 mi SW 5.8 mph - N/A   Scattered Clouds
4:15 AM 28.8 °F 21.7 °F 21.9 °F 76% 29.83 in 10.0 mi SW 6.9 mph - N/A   Scattered Clouds
4:35 AM 29.1 °F 22.1 °F 21.7 °F 74% 29.83 in 10.0 mi SW 6.9 mph - N/A   Scattered Clouds
4:55 AM 29.3 °F 20.8 °F 21.9 °F 74% 29.83 in 10.0 mi SW 9.2 mph - N/A   Clear
5:15 AM 29.7 °F 22.8 °F 21.7 °F 72% 29.83 in 10.0 mi WSW 6.9 mph - N/A   Clear
5:35 AM 29.5 °F 22.5 °F 21.7 °F 73% 29.83 in 10.0 mi WSW 6.9 mph - N/A   Clear
5:55 AM 29.3 °F 23.2 °F 21.7 °F 73% 29.83 in 10.0 mi SW 5.8 mph - N/A   Clear
6:15 AM 28.9 °F 23.9 °F 21.7 °F 74% 29.83 in 10.0 mi SW 4.6 mph - N/A   Clear
6:35 AM 29.1 °F 24.1 °F 21.7 °F 74% 29.82 in 10.0 mi SW 4.6 mph - N/A   Clear
6:55 AM 28.6 °F 24.8 °F 21.6 °F 75% 29.82 in 10.0 mi SSW 3.5 mph - N/A   Clear
7:15 AM 29.5 °F 23.4 °F 22.1 °F 74% 29.82 in 10.0 mi SW 5.8 mph - N/A   Clear
7:35 AM 30.6 °F 23.8 °F 22.5 °F 72% 29.84 in 10.0 mi WSW 6.9 mph - N/A   Clear
7:55 AM 30.9 °F 25.2 °F 22.5 °F 71% 29.84 in 10.0 mi WSW 5.8 mph - N/A   Clear
8:15 AM 31.5 °F 24.9 °F 22.6 °F 70% 29.84 in 10.0 mi WSW 6.9 mph - N/A   Clear
8:35 AM 32.0 °F 25.6 °F 22.3 °F 67% 29.83 in 10.0 mi WSW 6.9 mph - N/A   Clear
8:55 AM 32.4 °F 24.6 °F 22.6 °F 67% 29.82 in 10.0 mi WSW 9.2 mph - N/A   Clear
9:15 AM 32.9 °F 25.9 °F 22.6 °F 66% 29.81 in 10.0 mi SW 8.1 mph - N/A   Clear
9:35 AM 32.9 °F 25.9 °F 22.6 °F 66% 29.81 in 10.0 mi SW 8.1 mph - N/A   Mostly Cloudy
9:55 AM 33.4 °F 26.6 °F 23.2 °F 66% 29.82 in 10.0 mi West 8.1 mph - N/A   Overcast
10:15 AM 34.0 °F 26.0 °F 23.4 °F 65% 29.82 in 10.0 mi West 10.4 mph - N/A   Overcast
10:35 AM 34.5 °F 26.2 °F 23.7 °F 65% 29.83 in 10.0 mi WSW 11.5 mph - N/A   Overcast
10:55 AM 34.7 °F 27.5 °F 23.9 °F 65% 29.82 in 10.0 mi WSW 9.2 mph - N/A   Overcast
11:15 AM 35.1 °F 27.4 °F 23.9 °F 64% 29.81 in 10.0 mi SW 10.4 mph - N/A   Overcast
11:35 AM 34.7 °F 28.1 °F 24.1 °F 65% 29.80 in 10.0 mi WSW 8.1 mph - N/A   Overcast
11:55 AM 35.1 °F 30.1 °F 24.6 °F 66% 29.80 in 10.0 mi WSW 5.8 mph - N/A   Overcast
12:15 PM 35.6 °F 29.2 °F 24.8 °F 65% 29.80 in 10.0 mi WSW 8.1 mph - N/A   Overcast
12:35 PM 35.8 °F 29.4 °F 25.3 °F 66% 29.79 in 10.0 mi WSW 8.1 mph - N/A   Overcast
12:55 PM 36.0 °F 31.1 °F 25.0 °F 64% 29.79 in 10.0 mi WSW 5.8 mph - N/A   Overcast
1:15 PM 36.1 °F 29.9 °F 25.5 °F 65% 29.78 in 10.0 mi SW 8.1 mph - N/A   Overcast
1:35 PM 36.5 °F 29.7 °F 25.7 °F 65% 29.79 in 10.0 mi SW 9.2 mph - N/A   Overcast
1:55 PM 36.3 °F 30.8 °F 27.0 °F 69% 29.79 in 10.0 mi SW 6.9 mph - N/A   Light Drizzle
2:15 PM 36.0 °F 29.6 °F 27.9 °F 72% 29.79 in 10.0 mi SW 8.1 mph - N/A   Overcast
2:35 PM 36.1 °F 30.6 °F 27.7 °F 71% 29.80 in 10.0 mi WSW 6.9 mph - N/A   Overcast
2:55 PM 36.5 °F 31.8 °F 27.5 °F 70% 29.79 in 10.0 mi SW 5.8 mph - N/A   Overcast
3:15 PM 36.0 °F 31.1 °F 28.2 °F 73% 29.80 in 10.0 mi WSW 5.8 mph - N/A   Overcast
3:35 PM 35.6 °F 31.7 °F 29.7 °F 79% 29.80 in 10.0 mi SW 4.6 mph - N/A   Light Drizzle
3:55 PM 35.1 °F 30.1 °F 30.0 °F 82% 29.80 in 10.0 mi South 5.8 mph - N/A   Overcast
4:15 PM 34.7 °F 30.6 °F 30.0 °F 83% 29.79 in 10.0 mi SSW 4.6 mph - N/A   Overcast
4:35 PM 34.0 °F 29.8 °F 30.0 °F 85% 29.79 in 10.0 mi SSW 4.6 mph - N/A   Overcast
4:55 PM 33.8 °F 29.6 °F 29.8 °F 85% 29.78 in 10.0 mi South 4.6 mph - N/A   Overcast
5:15 PM 32.9 °F 27.5 °F 29.1 °F 86% 29.79 in 10.0 mi SW 5.8 mph - N/A   Mostly Cloudy
5:35 PM 32.2 °F 28.9 °F 28.4 °F 86% 29.79 in 10.0 mi SW 3.5 mph - N/A   Scattered Clouds
5:55 PM 32.0 °F - 28.8 °F 88% 29.79 in 10.0 mi Calm Calm - N/A   Clear
6:15 PM 32.9 °F - 29.1 °F 86% 29.79 in 10.0 mi Calm Calm - N/A   Scattered Clouds
6:35 PM 32.0 °F - 28.4 °F 87% 29.80 in 10.0 mi Calm Calm - N/A   Clear
6:55 PM 32.2 °F - 28.9 °F 88% 29.79 in 10.0 mi Calm Calm - N/A   Clear
7:15 PM 31.5 °F - 28.4 °F 88% 29.80 in 10.0 mi Calm Calm - N/A   Clear
7:35 PM 31.5 °F 28.1 °F 28.2 °F 88% 29.79 in 10.0 mi South 3.5 mph - N/A   Scattered Clouds
7:55 PM 28.8 °F 21.7 °F 27.3 °F 94% 29.80 in 10.0 mi SSW 6.9 mph - N/A   Scattered Clouds
8:15 PM 30.7 °F 24.1 °F 28.4 °F 91% 29.81 in 10.0 mi WSW 6.9 mph - N/A   Mostly Cloudy
8:35 PM 32.0 °F 26.4 °F 29.5 °F 90% 29.81 in 10.0 mi SW 5.8 mph - N/A   Mostly Cloudy
8:55 PM 32.0 °F 24.8 °F 29.5 °F 90% 29.81 in 10.0 mi SW 8.1 mph - N/A   Scattered Clouds
9:15 PM 33.3 °F 25.1 °F 30.2 °F 89% 29.81 in 10.0 mi SW 10.4 mph - N/A   Scattered Clouds
9:35 PM 33.8 °F 25.8 °F 30.2 °F 87% 29.80 in 10.0 mi SW 10.4 mph - N/A   Clear
9:55 PM 32.9 °F 25.9 °F 29.7 °F 88% 29.80 in 10.0 mi SW 8.1 mph - N/A   Clear
10:15 PM 32.4 °F 25.3 °F 29.1 °F 88% 29.80 in 10.0 mi WSW 8.1 mph - N/A   Clear
10:35 PM 32.0 °F 25.6 °F 28.6 °F 87% 29.80 in 10.0 mi WSW 6.9 mph - N/A   Clear
10:55 PM 32.2 °F 25.8 °F 28.6 °F 87% 29.80 in 10.0 mi WSW 6.9 mph - N/A   Clear
11:15 PM 31.6 °F 26.0 °F 28.0 °F 87% 29.80 in 10.0 mi WSW 5.8 mph - N/A   Clear
11:35 PM 30.6 °F 24.7 °F 27.3 °F 88% 29.80 in 10.0 mi WSW 5.8 mph - N/A   Clear
11:55 PM 30.2 °F 24.3 °F 27.1 °F 88% 29.80 in 10.0 mi WSW 5.8 mph - N/A   Clear